Location: Arborea
(39.7744°N, 8.5819°E)
Time: 05:07:34
(UTC+00:00)

Cosmos 2322 - Pass Details

Date: 31 May 2022
Orbit: 840 x 855 km, 71.0° (Epoch: 03 July)

Event Time Altitude Azimuth Distance (km) Brightness Sun altitude
Exits shadow 21:17:19 42° 122° (ESE) 1,208 4.1 -21.6°
Maximum altitude 21:17:53 43° 106° (ESE) 1,186 4.1 -21.6°
Drops below altitude 10° 21:23:15 10° 37° (NE) 2,492 6.4 -22.1°
Sets 21:25:49 0° 30° (NNE) 3,432 7.3 -22.4°
